,,PA_Meas_PMT16A,,PR_Meas_QMR101_102,,RH_Meas_QMH101,,SR_Meas_QMS101,,TA_Meas_QMH101,,GenWind,,GenWind,
time,status,PA,status,PR,status,RH,status,SR,status,TA,status,DirAvg,status,SpdAvg,
2014-08-08, 07:02:04,VALID,918.009,VALID,0,VALID,96.3447,VALID,57.5885,VALID,18.7669,INVALID,360,INVALID,0,
2014-08-08, 07:03:04,VALID,918,VALID,0,VALID,96.3447,VALID,60.167,VALID,18.7669,VALID,113,VALID,0.813672,
2014-08-08, 07:04:04,VALID,918.004,VALID,0,VALID,96.2685,VALID,62.9605,VALID,18.7878,VALID,113,VALID,0.798828,
2014-08-08, 07:05:04,VALID,918.032,VALID,0,VALID,96.2304,VALID,65.754,VALID,18.7878,VALID,113,VALID,1.11406,
2014-08-08, 07:06:04,VALID,918.012,VALID,0,VALID,96.1999,VALID,71.4484,VALID,18.7864,VALID,91,VALID,1.11133,
2014-08-08, 07:07:04,VALID,918.024,VALID,0,VALID,96.2075,VALID,88.8538,VALID,18.8059,VALID,91,VALID,0.866406,
2014-08-08, 07:08:04,VALID,918.021,VALID,0,VALID,96.1846,VALID,93.6887,VALID,18.8254,VALID,91,VALID,0.969922,
2014-08-08, 07:09:04,VALID,918.025,VALID,0,VALID,96.1313,VALID,97.5566,VALID,18.8839,VALID,91,VALID,1.14258,
2014-08-08, 07:10:04,VALID,918.036,VALID,0,VALID,96.1084,VALID,100.78,VALID,18.9424,VALID,91,VALID,0.956641,
2014-08-08, 07:11:04,VALID,918.086,VALID,0,VALID,96.0703,VALID,103.036,VALID,19.0008,VALID,91,VALID,0.620703,
2014-08-08, 07:12:04,VALID,918.091,VALID,0,VALID,96.0322,VALID,104.755,VALID,19.0398,VALID,92,VALID,0.560156,
2014-08-08, 07:13:04,VALID,918.094,VALID,0,VALID,96.0398,VALID,107.119,VALID,19.0774,VALID,91,VALID,0.577344,
2014-08-08, 07:14:04,VALID,918.12,VALID,0,VALID,95.9788,VALID,111.739,VALID,19.1373,VALID,96,VALID,0.932813,
2014-08-08, 07:15:04,VALID,918.155,VALID,0,VALID,95.9102,VALID,117.648,VALID,19.1958,VALID,95,VALID,0.936328,
2014-08-08, 07:16:04,VALID,918.176,VALID,0,VALID,95.9102,VALID,121.838,VALID,19.2543,VALID,95,VALID,0.741016,
2014-08-08, 07:17:04,VALID,918.144,VALID,0,VALID,95.8568,VALID,126.458,VALID,19.2933,VALID,101,VALID,0.444531,
2014-08-08, 07:18:04,VALID,918.193,VALID,0,VALID,95.8111,VALID,131.078,VALID,19.3518,VALID,102,VALID,0.744922,
2014-08-08, 07:19:04,VALID,918.199,VALID,0,VALID,95.7806,VALID,134.087,VALID,19.4313,VALID,102,VALID,0.529297,
2014-08-08, 07:20:04,VALID,918.228,VALID,0,VALID,95.7196,VALID,136.558,VALID,19.4703,VALID,103,VALID,0.611328,
2014-08-08, 07:21:04,VALID,918.249,VALID,0,VALID,95.6891,VALID,138.062,VALID,19.5288,VALID,104,VALID,0.538281,
2014-08-08, 07:22:04,VALID,918.231,VALID,0,VALID,95.6281,VALID,138.169,VALID,19.5468,VALID,103,VALID,0.818359,
2014-08-08, 07:23:04,VALID,918.287,VALID,0,VALID,95.5976,VALID,140.64,VALID,19.6263,VALID,103,VALID,0.590625,
2014-08-08, 07:24:04,VALID,918.313,VALID,0,VALID,95.5595,VALID,143.971,VALID,19.6638,VALID,103,VALID,0.594922,
2014-08-08, 07:25:04,VALID,918.306,VALID,0,VALID,95.4604,VALID,146.013,VALID,19.7028,VALID,104,VALID,0.677734,
2014-08-08, 07:26:04,VALID,918.32,VALID,0,VALID,95.3156,VALID,149.666,VALID,19.7418,VALID,166,VALID,0.728516,
2014-08-08, 07:27:04,VALID,918.305,VALID,0,VALID,95.003,VALID,152.244,VALID,19.7043,VALID,166,VALID,0.732422,
2014-08-08, 07:28:04,VALID,918.316,VALID,0,VALID,94.82,VALID,150.74,VALID,19.6833,VALID,166,VALID,0.521094,
2014-08-08, 07:29:04,VALID,918.368,VALID,0,VALID,94.8048,VALID,148.269,VALID,19.7028,VALID,166,VALID,0.510938,
2014-08-08, 07:30:04,VALID,918.345,VALID,0,VALID,94.5227,VALID,151.599,VALID,19.7028,VALID,166,VALID,0.836328,
2014-08-08, 07:31:04,VALID,918.38,VALID,0,VALID,94.0958,VALID,162.451,VALID,19.6638,VALID,155,VALID,0.958984,
2014-08-08, 07:32:04,VALID,918.387,VALID,0,VALID,93.89,VALID,173.625,VALID,19.6443,VALID,147,VALID,1.13047,
2014-08-08, 07:33:04,VALID,918.398,VALID,0,VALID,93.6689,VALID,178.46,VALID,19.6053,VALID,150,VALID,1.18555,
2014-08-08, 07:34:04,VALID,918.443,VALID,0,VALID,93.7985,VALID,182.113,VALID,19.6248,VALID,149,VALID,0.860937,
2014-08-08, 07:35:04,VALID,918.443,VALID,0,VALID,93.8214,VALID,184.799,VALID,19.6638,VALID,160,VALID,1.06367,
2014-08-08, 07:36:04,VALID,918.477,VALID,0,VALID,93.5088,VALID,181.038,VALID,19.6833,VALID,153,VALID,0.977734,
2014-08-08, 07:37:04,VALID,918.498,VALID,0,VALID,93.3411,VALID,177.278,VALID,19.7013,VALID,152,VALID,1.21602,
2014-08-08, 07:38:04,VALID,918.518,VALID,0,VALID,93.1658,VALID,180.931,VALID,19.7808,VALID,150,VALID,1.13047,
2014-08-08, 07:39:04,VALID,918.558,VALID,0,VALID,93.0133,VALID,183.832,VALID,19.8183,VALID,169,VALID,0.905859,
2014-08-08, 07:40:04,VALID,918.54,VALID,0,VALID,92.6931,VALID,191.03,VALID,19.8978,VALID,159,VALID,1.38945,
2014-08-08, 07:41:04,VALID,918.546,VALID,0,VALID,92.5483,VALID,201.345,VALID,19.9758,VALID,153,VALID,0.594141,
2014-08-08, 07:42:04,VALID,918.57,VALID,0,VALID,92.3577,VALID,206.932,VALID,20.1139,VALID,172,VALID,0.804297,
2014-08-08, 07:43:04,VALID,918.581,VALID,0,VALID,91.8469,VALID,211.981,VALID,20.1724,VALID,148,VALID,0.968359,
2014-08-08, 07:44:04,VALID,918.562,VALID,0,VALID,91.4429,VALID,219.502,VALID,20.3089,VALID,158,VALID,0.847266,
2014-08-08, 07:45:04,VALID,918.614,VALID,0,VALID,90.5967,VALID,220.684,VALID,20.3074,VALID,153,VALID,1.28516,
2014-08-08, 07:46:04,VALID,918.544,VALID,0,VALID,90.2917,VALID,220.039,VALID,20.4049,VALID,152,VALID,1.18516,
2014-08-08, 07:47:04,VALID,918.561,VALID,0,VALID,90.4595,VALID,221.114,VALID,20.4813,VALID,142,VALID,1.19336,
2014-08-08, 07:48:04,VALID,918.554,VALID,0,VALID,90.5814,VALID,221.866,VALID,20.5594,VALID,150,VALID,1.00391,
2014-08-08, 07:49:04,VALID,918.572,VALID,0,VALID,90.2765,VALID,223.692,VALID,20.6569,VALID,115,VALID,1.12578,
2014-08-08, 07:50:04,VALID,918.554,VALID,0,VALID,90.2994,VALID,220.792,VALID,20.7739,VALID,102,VALID,1.14414,
2014-08-08, 07:51:04,VALID,918.511,VALID,0,VALID,89.5904,VALID,201.774,VALID,20.8519,VALID,112,VALID,1.18555,
2014-08-08, 07:52:04,VALID,918.549,VALID,0,VALID,88.7594,VALID,186.518,VALID,20.8699,VALID,93,VALID,1.54922,
2014-08-08, 07:53:04,VALID,918.564,VALID,0,VALID,89.3236,VALID,199.196,VALID,20.9495,VALID,81,VALID,0.860937,
2014-08-08, 07:54:04,VALID,918.578,VALID,0,VALID,88.8509,VALID,221.866,VALID,20.969,VALID,129,VALID,1.18203,
2014-08-08, 07:55:04,VALID,918.575,VALID,0,VALID,88.5384,VALID,234.329,VALID,21.0275,VALID,103,VALID,1.13555,
2014-08-08, 07:56:04,VALID,918.607,VALID,0,VALID,88.1648,VALID,239.701,VALID,21.0844,VALID,99,VALID,1.11367,
2014-08-08, 07:57:04,VALID,918.637,VALID,0,VALID,87.0747,VALID,243.891,VALID,21.047,VALID,121,VALID,1.46602,
2014-08-08, 07:58:04,VALID,918.656,VALID,0,VALID,88.0581,VALID,246.363,VALID,21.1055,VALID,85,VALID,1.0418,
2014-08-08, 07:59:04,VALID,918.677,VALID,0,VALID,87.9132,VALID,254.743,VALID,21.164,VALID,101,VALID,1.37695,
2014-08-08, 08:00:04,VALID,918.677,VALID,0,VALID,88.0428,VALID,262.371,VALID,21.1836,VALID,71,VALID,1.18711,
2014-08-08, 08:01:04,VALID,918.709,VALID,0,VALID,88.2334,VALID,265.272,VALID,21.2795,VALID,84,VALID,0.626172,
2014-08-08, 08:02:04,VALID,918.723,VALID,0,VALID,86.2818,VALID,270.644,VALID,21.3981,VALID,101,VALID,1.33281,
2014-08-08, 08:03:04,VALID,918.739,VALID,0,VALID,87.1204,VALID,278.38,VALID,21.4957,VALID,73,VALID,1.15977,
2014-08-08, 08:04:04,VALID,918.744,VALID,0,VALID,84.5437,VALID,279.454,VALID,21.5347,VALID,71,VALID,1.44062,
2014-08-08, 08:05:04,VALID,918.736,VALID,0,VALID,85.5652,VALID,279.669,VALID,21.5737,VALID,60,VALID,1.24805,
2014-08-08, 08:06:04,VALID,918.786,VALID,0,VALID,85.9083,VALID,287.298,VALID,21.6713,VALID,106,VALID,0.628906,
2014-08-08, 08:07:04,VALID,918.779,VALID,0,VALID,84.5056,VALID,292.777,VALID,21.8079,VALID,81,VALID,0.575,
2014-08-08, 08:08:04,VALID,918.832,VALID,0,VALID,84.6809,VALID,292.992,VALID,22.003,VALID,62,VALID,0.491797,
2014-08-08, 08:09:04,VALID,918.811,VALID,0,VALID,83.4688,VALID,296.538,VALID,22.2371,VALID,64,VALID,0.230078,
2014-08-08, 08:10:04,VALID,918.85,VALID,0,VALID,80.4804,VALID,297.719,VALID,22.4128,VALID,163,VALID,0.776953,
2014-08-08, 08:11:04,VALID,918.877,VALID,0,VALID,78.9938,VALID,300.298,VALID,22.4128,VALID,126,VALID,0.991016,
2014-08-08, 08:12:04,VALID,918.919,VALID,0,VALID,79.7409,VALID,299.976,VALID,22.3525,VALID,101,VALID,1.01836,
2014-08-08, 08:13:04,VALID,918.9,VALID,0,VALID,79.6723,VALID,296.967,VALID,22.255,VALID,96,VALID,1.04258,
2014-08-08, 08:14:04,VALID,918.957,VALID,0,VALID,79.4741,VALID,293.099,VALID,22.1964,VALID,90,VALID,0.990625,
2014-08-08, 08:15:04,VALID,918.951,VALID,0,VALID,82.0737,VALID,294.819,VALID,22.2354,VALID,72,VALID,0.824609,
2014-08-08, 08:16:04,VALID,919.022,VALID,0,VALID,81.4333,VALID,287.298,VALID,22.372,VALID,97,VALID,0.467187,
2014-08-08, 08:17:04,VALID,919.023,VALID,0,VALID,78.5517,VALID,297.29,VALID,22.4111,VALID,153,VALID,0.610547,
2014-08-08, 08:18:04,VALID,919.051,VALID,0,VALID,79.3598,VALID,295.141,VALID,22.4501,VALID,145,VALID,0.451953,
2014-08-08, 08:19:04,VALID,919.058,VALID,0,VALID,79.032,VALID,292.025,VALID,22.4696,VALID,151,VALID,0.800781,
2014-08-08, 08:20:04,VALID,919.05,VALID,0,VALID,77.9494,VALID,309.323,VALID,22.4891,VALID,170,VALID,0.496875,
2014-08-08, 08:21:04,VALID,919.095,VALID,0,VALID,78.0638,VALID,308.141,VALID,22.5867,VALID,120,VALID,0.579297,
2014-08-08, 08:22:04,VALID,919.065,VALID,0,VALID,79.192,VALID,308.141,VALID,22.8014,VALID,69,VALID,1.02266,
2014-08-08, 08:23:04,VALID,919.105,VALID,0,VALID,79.2912,VALID,301.587,VALID,22.977,VALID,69,VALID,0.892578,
2014-08-08, 08:24:04,VALID,919.112,VALID,0,VALID,77.6064,VALID,306.959,VALID,23.0746,VALID,110,VALID,0.0960938,
2014-08-08, 08:25:04,VALID,919.076,VALID,0,VALID,77.8122,VALID,333.068,VALID,23.2112,VALID,68,VALID,0.483984,
2014-08-08, 08:26:04,VALID,919.059,VALID,0,VALID,75.9826,VALID,357.779,VALID,23.3869,VALID,68,VALID,0,
2014-08-08, 08:27:04,VALID,919.079,VALID,0,VALID,77.2862,VALID,370.242,VALID,23.4632,VALID,102,VALID,0.208984,
2014-08-08, 08:28:04,VALID,919.051,VALID,0,VALID,74.1072,VALID,374.325,VALID,23.5235,VALID,59,VALID,0.726563,
2014-08-08, 08:29:04,VALID,919.07,VALID,0,VALID,76.1122,VALID,382.168,VALID,23.504,VALID,61,VALID,0.546484,
2014-08-08, 08:30:04,VALID,919.078,VALID,0,VALID,74.1911,VALID,379.804,VALID,23.4632,VALID,56,VALID,0.851172,
2014-08-08, 08:31:04,VALID,919.066,VALID,0,VALID,75.9902,VALID,381.631,VALID,23.4259,VALID,66,VALID,0.989062,
2014-08-08, 08:32:04,VALID,919.078,VALID,0,VALID,77.3319,VALID,387.97,VALID,23.4064,VALID,70,VALID,0.355859,
2014-08-08, 08:33:04,VALID,919.098,VALID,0,VALID,74.9534,VALID,387.433,VALID,23.5626,VALID,146,VALID,0.679297,
2014-08-08, 08:34:04,VALID,919.104,VALID,0,VALID,71.9955,VALID,383.995,VALID,23.6388,VALID,158,VALID,0.873438,
2014-08-08, 08:35:04,VALID,919.121,VALID,0,VALID,72.7121,VALID,390.656,VALID,23.5235,VALID,143,VALID,0.475391,
2014-08-08, 08:36:04,VALID,919.176,VALID,0,VALID,72.9103,VALID,393.02,VALID,23.6211,VALID,133,VALID,0.501562,
2014-08-08, 08:37:04,VALID,919.19,VALID,0,VALID,70.1354,VALID,389.474,VALID,23.6602,VALID,116,VALID,0.000390625,
2014-08-08, 08:38:04,VALID,919.164,VALID,0,VALID,71.4009,VALID,391.516,VALID,23.795,VALID,116,VALID,0.439063,
2014-08-08, 08:39:04,VALID,919.157,VALID,0,VALID,71.0807,VALID,395.921,VALID,23.9335,VALID,116,VALID,0.545313,
2014-08-08, 08:40:04,VALID,919.148,VALID,0,VALID,73.5202,VALID,411.715,VALID,23.953,VALID,154,VALID,0.763281,
2014-08-08, 08:41:04,VALID,919.162,VALID,0,VALID,73.7565,VALID,410.425,VALID,24.0292,VALID,177,VALID,0.420703,
2014-08-08, 08:42:04,VALID,919.178,VALID,0,VALID,71.965,VALID,409.995,VALID,24.1464,VALID,175,VALID,0.887109,
2014-08-08, 08:43:04,VALID,919.171,VALID,0,VALID,71.5991,VALID,416.334,VALID,24.1464,VALID,195,VALID,0.671875,
2014-08-08, 08:44:04,VALID,919.221,VALID,0,VALID,71.2484,VALID,423.64,VALID,24.1269,VALID,188,VALID,0.7375,
2014-08-08, 08:45:04,VALID,919.208,VALID,0,VALID,70.7377,VALID,426.326,VALID,24.283,VALID,188,VALID,0.662109,
2014-08-08, 08:46:04,VALID,919.23,VALID,0,VALID,70.8444,VALID,426.434,VALID,24.3611,VALID,174,VALID,0.833984,
2014-08-08, 08:47:04,VALID,919.235,VALID,0,VALID,70.4709,VALID,426.649,VALID,24.3416,VALID,156,VALID,0.161719,
2014-08-08, 08:48:04,VALID,919.206,VALID,0,VALID,71.5305,VALID,429.55,VALID,24.244,VALID,154,VALID,0.960156,
2014-08-08, 08:49:04,VALID,919.236,VALID,0,VALID,70.7682,VALID,430.946,VALID,24.0469,VALID,148,VALID,0.466016,
2014-08-08, 08:50:04,VALID,919.212,VALID,0,VALID,72.1328,VALID,438.682,VALID,24.1269,VALID,148,VALID,0.125391,
2014-08-08, 08:51:04,VALID,919.218,VALID,0,VALID,71.8126,VALID,444.162,VALID,24.2421,VALID,139,VALID,0.426953,
2014-08-08, 08:52:04,VALID,919.229,VALID,0,VALID,71.0579,VALID,449.964,VALID,24.3983,VALID,135,VALID,0,
2014-08-08, 08:53:04,VALID,919.231,VALID,0,VALID,69.9601,VALID,456.517,VALID,24.535,VALID,132,VALID,0,
2014-08-08, 08:54:04,VALID,919.219,VALID,0,VALID,70.7987,VALID,458.666,VALID,24.7107,VALID,135,VALID,0,
2014-08-08, 08:55:04,VALID,919.233,VALID,0,VALID,70.7224,VALID,465.22,VALID,24.9274,VALID,141,VALID,0.25,
2014-08-08, 08:56:04,VALID,919.247,VALID,0,VALID,68.4888,VALID,474.138,VALID,24.8688,VALID,142,VALID,0.682813,
2014-08-08, 08:57:04,VALID,919.231,VALID,0,VALID,68.0466,VALID,478.435,VALID,24.7516,VALID,145,VALID,0.587891,
2014-08-08, 08:58:04,VALID,919.225,VALID,0,VALID,64.6237,VALID,478.543,VALID,24.6345,VALID,172,VALID,0.651172,
2014-08-08, 08:59:04,VALID,919.239,VALID,0,VALID,66.8878,VALID,494.337,VALID,24.654,VALID,172,VALID,0.915625,
2014-08-08, 09:00:04,VALID,919.25,VALID,0,VALID,66.9565,VALID,500.568,VALID,24.4216,VALID,172,VALID,0.732422,
2014-08-08, 09:01:04,VALID,919.269,VALID,0,VALID,67.7264,VALID,502.717,VALID,24.5368,VALID,172,VALID,0.0285156,
2014-08-08, 09:02:04,VALID,919.282,VALID,0,VALID,66.4076,VALID,506.585,VALID,24.7516,VALID,121,VALID,0.401953,
2014-08-08, 09:03:04,VALID,919.302,VALID,0,VALID,64.6008,VALID,506.048,VALID,24.8297,VALID,146,VALID,0.610937,
2014-08-08, 09:04:04,VALID,919.294,VALID,0,VALID,65.1268,VALID,508.626,VALID,24.8883,VALID,147,VALID,0.509375,
2014-08-08, 09:05:04,VALID,919.291,VALID,0,VALID,64.8219,VALID,514.213,VALID,24.8883,VALID,159,VALID,0.615234,
2014-08-08, 09:06:04,VALID,919.314,VALID,0,VALID,66.8802,VALID,513.891,VALID,24.9469,VALID,159,VALID,0.676953,
2014-08-08, 09:07:04,VALID,919.318,VALID,0,VALID,68.0847,VALID,518.618,VALID,24.9859,VALID,159,VALID,0.399609,
2014-08-08, 09:08:04,VALID,919.307,VALID,0,VALID,66.8955,VALID,526.139,VALID,24.9274,VALID,131,VALID,1.00977,
2014-08-08, 09:09:04,VALID,919.314,VALID,0,VALID,70.3413,VALID,530.544,VALID,24.8297,VALID,123,VALID,0.257422,
2014-08-08, 09:10:04,VALID,919.309,VALID,0,VALID,68.9614,VALID,469.733,VALID,24.984,VALID,138,VALID,0.845312,
2014-08-08, 09:11:04,VALID,919.297,VALID,0,VALID,65.8358,VALID,537.958,VALID,24.9078,VALID,159,VALID,0.205469,
2014-08-08, 09:12:04,VALID,919.296,VALID,0,VALID,64.8372,VALID,454.691,VALID,25.1031,VALID,159,VALID,0,
2014-08-08, 09:13:04,VALID,919.299,VALID,0,VALID,63.3277,VALID,405.161,VALID,25.396,VALID,159,VALID,0.592188,
2014-08-08, 09:14:04,VALID,919.276,VALID,0,VALID,62.7331,VALID,452.112,VALID,25.5503,VALID,132,VALID,0.297656,
2014-08-08, 09:15:04,VALID,919.289,VALID,0,VALID,62.0622,VALID,486.708,VALID,25.6089,VALID,100,VALID,0.269922,
2014-08-08, 09:16:04,VALID,919.29,VALID,0,VALID,62.8627,VALID,503.792,VALID,25.6284,VALID,100,VALID,0,
2014-08-08, 09:17:04,VALID,919.272,VALID,0,VALID,62.3595,VALID,529.04,VALID,25.7261,VALID,100,VALID,0,
2014-08-08, 09:18:04,VALID,919.312,VALID,0,VALID,62.1766,VALID,534.197,VALID,25.8823,VALID,100,VALID,0.821094,
2014-08-08, 09:19:04,VALID,919.285,VALID,0,VALID,61.0788,VALID,546.446,VALID,25.9019,VALID,100,VALID,0.937109,
2014-08-08, 09:20:04,VALID,919.303,VALID,0,VALID,60.4766,VALID,553.107,VALID,25.8433,VALID,100,VALID,0.8625,
2014-08-08, 09:21:04,VALID,919.291,VALID,0,VALID,60.4308,VALID,556.008,VALID,25.7046,VALID,100,VALID,1.075,
2014-08-08, 09:22:04,VALID,919.279,VALID,0,VALID,63.1143,VALID,560.628,VALID,25.5093,VALID,100,VALID,1.01992,
2014-08-08, 09:23:04,VALID,919.277,VALID,0,VALID,62.3672,VALID,561.058,VALID,25.3941,VALID,68,VALID,1.03633,
2014-08-08, 09:24:04,VALID,919.291,VALID,0,VALID,63.8461,VALID,553.859,VALID,25.1598,VALID,68,VALID,0.836719,
2014-08-08, 09:25:04,VALID,919.297,VALID,0,VALID,64.8676,VALID,554.074,VALID,24.9626,VALID,91,VALID,0.534766,
2014-08-08, 09:26:04,VALID,919.312,VALID,0,VALID,68.1991,VALID,549.776,VALID,25.0231,VALID,61,VALID,0.869922,
2014-08-08, 09:27:04,VALID,919.314,VALID,0,VALID,66.6591,VALID,532.586,VALID,25.2379,VALID,58,VALID,1.43906,
2014-08-08, 09:28:04,VALID,919.326,VALID,0,VALID,66.5372,VALID,536.991,VALID,25.316,VALID,61,VALID,0.480078,
2014-08-08, 09:29:04,VALID,919.354,VALID,0,VALID,65.8206,VALID,544.512,VALID,25.4331,VALID,57,VALID,0,
2014-08-08, 09:30:04,VALID,919.336,VALID,0,VALID,65.691,VALID,567.182,VALID,25.5503,VALID,57,VALID,0.0578125,
2014-08-08, 09:31:04,VALID,919.362,VALID,0,VALID,64.5551,VALID,574.38,VALID,25.7651,VALID,43,VALID,1.10859,
2014-08-08, 09:32:04,VALID,919.397,VALID,0,VALID,64.9363,VALID,584.48,VALID,25.7066,VALID,54,VALID,1.35938,
2014-08-08, 09:33:04,VALID,919.393,VALID,0,VALID,64.9972,VALID,528.181,VALID,25.5503,VALID,57,VALID,0.936719,
2014-08-08, 09:34:04,VALID,919.417,VALID,0,VALID,65.386,VALID,551.495,VALID,25.5113,VALID,50,VALID,1.14805,
2014-08-08, 09:35:04,VALID,919.361,VALID,0,VALID,65.1802,VALID,346.175,VALID,25.4703,VALID,56,VALID,0.746094,
2014-08-08, 09:36:04,VALID,919.354,VALID,0,VALID,65.3937,VALID,245.933,VALID,25.3726,VALID,49,VALID,0.866016,
2014-08-08, 09:37:04,VALID,919.357,VALID,0,VALID,66.8497,VALID,498.634,VALID,25.275,VALID,49,VALID,0.609766,
2014-08-08, 09:38:04,VALID,919.345,VALID,0,VALID,68.2601,VALID,262.694,VALID,25.3355,VALID,1,VALID,1.03437,
2014-08-08, 09:39:04,VALID,919.328,VALID,0,VALID,65.6452,VALID,462.104,VALID,25.2164,VALID,1,VALID,0.495313,
2014-08-08, 09:40:04,VALID,919.35,VALID,0,VALID,65.0964,VALID,476.824,VALID,25.1598,VALID,1,VALID,0,
2014-08-08, 09:41:04,VALID,919.326,VALID,0,VALID,65.508,VALID,413.111,VALID,25.2164,VALID,1,VALID,0,
2014-08-08, 09:42:04,VALID,919.313,VALID,0,VALID,66.4533,VALID,433.095,VALID,25.3531,VALID,1,VALID,0,
2014-08-08, 09:43:04,VALID,919.326,VALID,0,VALID,66.1255,VALID,272.041,VALID,25.4507,VALID,1,VALID,0,
2014-08-08, 09:44:04,VALID,919.337,VALID,0,VALID,66.7887,VALID,194.468,VALID,25.4117,VALID,1,VALID,0,
2014-08-08, 09:45:04,VALID,919.335,VALID,0,VALID,64.9591,VALID,179.749,VALID,25.275,VALID,1,VALID,0,
2014-08-08, 09:46:04,VALID,919.322,VALID,0,VALID,66.7049,VALID,171.261,VALID,25.1793,VALID,1,VALID,0,
2014-08-08, 09:47:04,VALID,919.327,VALID,0,VALID,67.7188,VALID,159.013,VALID,25.2183,VALID,1,VALID,0,
2014-08-08, 09:48:04,VALID,919.34,VALID,0,VALID,65.7215,VALID,150.847,VALID,25.2398,VALID,1,VALID,0,
2014-08-08, 09:49:04,VALID,919.346,VALID,0,VALID,66.9641,VALID,150.632,VALID,25.1793,VALID,1,VALID,0,
2014-08-08, 09:50:04,VALID,919.365,VALID,0,VALID,65.1345,VALID,149.988,VALID,25.1617,VALID,1,VALID,0,
2014-08-08, 09:51:04,VALID,919.374,VALID,0,VALID,67.5968,VALID,151.922,VALID,25.1031,VALID,1,VALID,0,
2014-08-08, 09:52:04,VALID,919.37,VALID,0,VALID,67.6349,VALID,155.467,VALID,25.025,VALID,1,VALID,0,
2014-08-08, 09:53:04,VALID,919.374,VALID,0,VALID,67.6883,VALID,161.591,VALID,25.1031,VALID,1,VALID,0,
2014-08-08, 09:54:04,VALID,919.38,VALID,0,VALID,67.8484,VALID,160.41,VALID,25.1207,VALID,1,VALID,0,
2014-08-08, 09:55:04,VALID,919.406,VALID,0,VALID,66.3313,VALID,163.096,VALID,25.1226,VALID,1,VALID,0,
2014-08-08, 09:56:04,VALID,919.404,VALID,0,VALID,64.7076,VALID,166.856,VALID,25.0036,VALID,1,VALID,0,
2014-08-08, 09:57:04,VALID,919.405,VALID,0,VALID,63.8385,VALID,175.344,VALID,25.0445,VALID,360,VALID,0,
2014-08-08, 09:58:04,VALID,919.395,VALID,0,VALID,65.5766,VALID,184.369,VALID,25.0036,VALID,1,VALID,0,
2014-08-08, 09:59:04,VALID,919.403,VALID,0,VALID,66.0188,VALID,188.237,VALID,24.9664,INVALID,360,VALID,0,
2014-08-08, 10:00:04,VALID,919.4,VALID,0,VALID,64.6923,VALID,194.468,VALID,24.9645,VALID,1,VALID,0,
2014-08-08, 10:01:04,VALID,919.374,VALID,0,VALID,65.1802,VALID,199.411,VALID,24.9859,VALID,1,VALID,0,
2014-08-08, 10:02:04,VALID,919.36,VALID,0,VALID,66.4381,VALID,208.006,VALID,24.9059,INVALID,360,VALID,0,
2014-08-08, 10:03:04,VALID,919.34,VALID,0,VALID,67.5511,VALID,206.824,VALID,24.9645,VALID,1,VALID,0,
2014-08-08, 10:04:04,VALID,919.348,VALID,0,VALID,65.1345,VALID,200.808,VALID,25.0817,VALID,1,VALID,0,
2014-08-08, 10:05:04,VALID,919.331,VALID,0,VALID,65.8282,VALID,202.312,VALID,25.0602,VALID,1,VALID,0,
2014-08-08, 10:06:04,VALID,919.35,VALID,0,VALID,65.7672,VALID,208.114,VALID,25.0017,VALID,1,VALID,0,
2014-08-08, 10:07:04,VALID,919.331,VALID,0,VALID,64.2806,VALID,217.783,VALID,25.0212,VALID,1,VALID,0,
2014-08-08, 10:08:04,VALID,919.304,VALID,0,VALID,62.3519,VALID,220.254,VALID,25.0407,VALID,1,VALID,0,
2014-08-08, 10:09:04,VALID,919.306,VALID,0,VALID,61.7802,VALID,279.025,VALID,25.0621,VALID,1,VALID,0,
2014-08-08, 10:10:04,VALID,919.284,VALID,0,VALID,61.8945,VALID,492.295,VALID,25.1207,VALID,1,VALID,0,
2014-08-08, 10:11:04,VALID,919.296,VALID,0,VALID,62.3214,VALID,337.365,VALID,25.1579,VALID,1,VALID,0,
2014-08-08, 10:12:04,VALID,919.276,VALID,0,VALID,62.9923,VALID,668.391,VALID,25.1988,INVALID,360,VALID,0,
2014-08-08, 10:13:04,VALID,919.316,VALID,0,VALID,62.1156,VALID,638.738,VALID,25.2965,VALID,1,VALID,0,
2014-08-08, 10:14:04,VALID,919.289,VALID,0,VALID,61.338,VALID,350.688,VALID,25.3746,VALID,1,VALID,0,
2014-08-08, 10:15:04,VALID,919.276,VALID,0,VALID,61.3228,VALID,731.782,VALID,25.4136,VALID,1,VALID,0,
2014-08-08, 10:16:04,VALID,919.265,VALID,0,VALID,60.5452,VALID,262.479,VALID,25.3922,VALID,1,VALID,0,
2014-08-08, 10:17:04,VALID,919.246,VALID,0,VALID,61.9631,VALID,232.61,VALID,25.3336,VALID,1,VALID,0.796875,
2014-08-08, 10:18:04,VALID,919.267,VALID,0,VALID,62.6797,VALID,243.462,VALID,25.3355,VALID,1,VALID,0.732813,
2014-08-08, 10:19:04,VALID,919.245,VALID,0,VALID,62.39,VALID,294.711,VALID,25.2945,VALID,1,VALID,0.465234,
2014-08-08, 10:20:04,VALID,919.233,VALID,0,VALID,62.6264,VALID,811.718,VALID,25.4117,VALID,1,VALID,0.532812,
2014-08-08, 10:21:04,VALID,919.218,VALID,0,VALID,61.8335,VALID,436.104,VALID,25.648,VALID,1,VALID,0.273438,
2014-08-08, 10:22:04,VALID,919.214,VALID,0,VALID,61.3075,VALID,819.346,VALID,25.8237,VALID,1,VALID,0.153516,
2014-08-08, 10:23:04,VALID,919.209,VALID,0,VALID,61.0864,VALID,765.626,VALID,25.9019,VALID,1,VALID,0.583594,
2014-08-08, 10:24:04,VALID,919.179,VALID,0,VALID,61.399,VALID,795.172,VALID,25.9409,VALID,1,VALID,0.13125,
2014-08-08, 10:25:04,VALID,919.214,VALID,0,VALID,60.9797,VALID,676.879,VALID,26.1147,VALID,1,VALID,0.199609,
2014-08-08, 10:26:04,VALID,919.194,VALID,0,VALID,61.1245,VALID,368.631,VALID,26.4488,VALID,1,VALID,0,
2014-08-08, 10:27:04,VALID,919.167,VALID,0,VALID,59.9658,VALID,341.233,VALID,26.5269,VALID,1,VALID,0.0640625,
2014-08-08, 10:28:04,VALID,919.159,VALID,0,VALID,59.4398,VALID,344.564,VALID,26.4097,VALID,1,VALID,0.897266,
2014-08-08, 10:29:04,VALID,919.156,VALID,0,VALID,60.2402,VALID,346.605,VALID,26.1167,VALID,1,VALID,0.113672,
2014-08-08, 10:30:04,VALID,919.125,VALID,0,VALID,61.0407,VALID,347.572,VALID,25.8433,VALID,1,VALID,0.0414063,
2014-08-08, 10:31:04,VALID,919.079,VALID,0,VALID,63.1219,VALID,366.052,VALID,25.5698,VALID,1,VALID,0,
2014-08-08, 10:32:04,VALID,919.049,VALID,0,VALID,63.8461,VALID,447.922,VALID,25.4703,VALID,1,VALID,0,
2014-08-08, 10:33:04,VALID,919.039,VALID,0,VALID,62.5501,VALID,623.374,VALID,25.5308,VALID,1,VALID,0.634375,
2014-08-08, 10:34:04,VALID,919.018,VALID,0,VALID,63.5869,VALID,640.027,VALID,25.4917,VALID,1,VALID,0,
2014-08-08, 10:35:04,VALID,919.003,VALID,0,VALID,61.5896,VALID,624.878,VALID,25.5093,VALID,1,VALID,0.220313,
2014-08-08, 10:36:04,VALID,918.967,VALID,0,VALID,61.803,VALID,562.454,VALID,25.607,VALID,1,VALID,0,
2014-08-08, 10:37:04,VALID,918.984,VALID,0,VALID,61.864,VALID,551.925,VALID,25.8218,VALID,1,VALID,0,
2014-08-08, 10:38:04,VALID,918.914,VALID,0,VALID,62.9694,VALID,535.487,VALID,25.9975,VALID,1,VALID,0.0464844,
2014-08-08, 10:39:04,VALID,918.947,VALID,0,VALID,62.0699,VALID,641.316,VALID,25.98,VALID,360,VALID,0,